KISSLEGG Weather Reports


Display with metric or nautical units.
time (UTC)temp
F
wind
direction
speed
MPH
gust
MPH
rain 1hr
in
rain 24hr
in
rain mn
in
humidity
%
barometer
mb
20260504020212 53 360 0.0 0.0 0.00 0.00 0.00 77 1013.7
20260504013211 53 360 0.0 0.0 0.00 0.00 0.00 76 1013.7
20260504010211 53 360 0.0 0.0 0.00 0.00 0.00 77 1013.9
20260504003210 53 360 0.0 0.0 0.00 0.00 0.00 77 1014.2
20260504000208 53 360 0.0 0.0 0.00 0.00 0.00 74 1014.3
20260503233209 53 360 0.0 0.0 0.00 0.00 0.00 72 1014.4
20260503230209 54 360 0.0 0.0 0.00 0.00 0.00 72 1014.4
20260503223210 54 360 0.0 0.0 0.00 0.00 0.00 72 1014.4
20260503220212 54 360 0.0 0.0 0.00 0.00 0.00 70 1014.1
20260503213210 55 360 0.0 0.0 0.00 0.00 0.00 68 1013.9
20260503210211 56 360 0.0 0.0 0.00 0.00 0.00 67 1013.7
20260503203209 57 360 0.0 0.0 0.00 0.00 0.00 64 1013.4
20260503200211 58 360 0.0 0.0 0.00 0.00 0.00 61 1013.1
20260503193210 59 360 0.0 0.0 0.00 0.00 0.00 60 1012.8
20260503190210 60 286 0.0 0.0 0.00 0.00 0.00 57 1012.1
20260503183209 62 213 0.0 0.0 0.00 0.00 0.00 55 1012.1
20260503180210 68 360 0.0 0.0 0.00 0.00 0.00 49 1011.3
20260503173209 69 360 0.0 0.0 0.00 0.00 0.00 47 1011.2
20260503170211 69 360 0.0 0.0 0.00 0.00 0.00 46 1011.0
20260503160211 74 187 0.0 0.0 0.00 0.00 0.00 42 1011.0
20260503150209 75 360 0.0 0.0 0.00 0.00 0.00 36 1011.1
20260503140210 75 182 0.0 0.0 0.00 0.00 0.00 31 1011.3
20260503130210 74 219 0.0 0.0 0.00 0.00 0.00 35 1012.1
20260503120210 73 265 0.0 0.0 0.00 0.00 0.00 42 1012.6
20260503110210 71 360 0.0 0.0 0.00 0.00 0.00 46 1013.1
20260503100212 70 252 0.0 0.0 0.00 0.00 0.00 45 1013.7
20260503090210 68 360 0.0 0.0 0.00 0.00 0.00 53 1014.2
20260503080212 65 223 0.0 0.0 0.00 0.00 0.00 50 1014.4
20260503070211 62 360 0.0 0.0 0.00 0.00 0.00 52 1014.4
20260503060211 56 183 0.0 0.0 0.00 0.00 0.00 64 1014.6
20260503053211 54 183 0.0 0.0 0.00 0.00 0.00 67 1014.4
20260503050212 53 183 0.0 0.0 0.00 0.00 0.00 67 1014.5
20260503043211 53 360 0.0 0.0 0.00 0.00 0.00 69 1014.7
20260503040210 51 360 0.0 0.0 0.00 0.00 0.00 72 1014.7
20260503033211 52 360 0.0 0.0 0.00 0.00 0.00 73 1014.8
20260503030211 53 360 0.0 0.0 0.00 0.00 0.00 73 1014.8
20260503023211 52 360 0.0 0.0 0.00 0.00 0.00 71 1015.0